Hourly Data Report for October 01, 2013

All times are specified in Local Standard Time (LST). Add 1 hour to adjust for Daylight Saving Time where and when it is observed.

MONCTON INTL A
NEW BRUNSWICK

46°06'44.000" N
64°40'43.000" W
70.70 m
8103201
71705
YQM

Related Data

No related data is available for this station

Download Data

Hourly Data (October 2013)
Hourly Data Report for October 1, 2013
Temp Definition
°C
Dew Point Temp Definition
°C
Rel Hum Definition
%
Wind Dir Definition
10's deg

Wind Spd Definition
km/h
Visibility Definition
km
Stn Press Definition
kPa
Hmdx Definition


Wind Chill Definition


Weather Definition


TIME
00:00 Legend Double Dagger 9.2 7.3 88 3 3 24.1 100.70     LegendNANA
01:00 Legend Double Dagger 9.9 6.3 78 7 5 24.1 100.65     LegendNANA
02:00 Legend Double Dagger 10.5 5.5 71 9 7 24.1 100.63     Mostly Cloudy
03:00 Legend Double Dagger 9.1 7.4 89 1 10 24.1 100.57     LegendNANA
04:00 Legend Double Dagger 10.1 6.7 79 5 6 24.1 100.54     LegendNANA
05:00 Legend Double Dagger 11.1 7.3 77 6 7 24.1 100.54     Rain
06:00 Legend Double Dagger 11.1 8.9 86 7 2 24.1 100.50     LegendNANA
07:00 Legend Double Dagger 10.9 9.8 93 2 4 24.1 100.51     Rain Showers
08:00 Legend Double Dagger 12.3 11.1 92 1 11 24.1 100.48     Rain Showers
09:00 Legend Double Dagger 14.8 13.5 92 3 11 24.1 100.46     Rain Showers
10:00 Legend Double Dagger 15.8 12.8 82 4 12 24.1 100.42     LegendNANA
11:00 Legend Double Dagger 16.8 12.2 74 1 12 24.1 100.36     Mostly Cloudy
12:00 Legend Double Dagger 18.0 11.6 66 2 17 24.1 100.30     LegendNANA
13:00 Legend Double Dagger 17.6 11.0 65 3 15 24.1 100.23     LegendNANA
14:00 Legend Double Dagger 17.6 11.7 68 3 11 24.1 100.18     Mostly Cloudy
15:00 Legend Double Dagger 17.8 11.0 64 3 12 24.1 100.10     LegendNANA
16:00 Legend Double Dagger 17.2 11.3 68 4 13 24.1 100.07     LegendNANA
17:00 Legend Double Dagger 16.1 11.9 76 6 8 24.1 100.05     Mostly Cloudy
18:00 Legend Double Dagger 15.2 12.2 82 1 5 24.1 100.05     LegendNANA
19:00 Legend Double Dagger 14.6 10.5 76 17 4 24.1 100.04     LegendNANA
20:00 Legend Double Dagger 13.7 10.7 82 21 5 24.1 100.02     Mostly Cloudy
21:00 Legend Double Dagger 12.0 10.6 91 20 7 24.1 100.03     LegendNANA
22:00 Legend Double Dagger 10.5 9.9 96 18 10 24.1 100.00     LegendNANA
23:00 Legend Double Dagger 9.7 8.9 95 24 10 24.1 99.97     Clear

Notes on Data Quality.

Legend

  • E = Estimated
  • M = Missing
  • NA = Not Available
  • ‡ = Partner data that is not subject to review by the National Climate Archives
Date modified: